Powrót do katalogu

JTSY

AktywnyNaukaPO
NORAD 49318·PAYLOAD·🇨🇳 China
Ta nazwa satelity nie została jeszcze potwierdzona przez oficjalne źródła.

Wystrzelony Oct 14, 2021 z Taiyuan Satellite Launch Center

Loading…

Następne Przeloty (najbliższe 24 godziny)

TLE

ŚwieżeSource: Space-Track

Epoka: Sep 14, 2026, 14:18 UTC

1 49318U 21091D   26257.59601625 -.00000116  00000-0 -57248-4 0  9994
2 49318  97.4473 273.8831 0013330  83.8855 276.3833 14.00159084260596

Śledź JTSY w czasie rzeczywistym z AllMySat

Download on the App Store